sat.trackr.live / text

‹ back to catalog

STARLINK-3543

NORAD 51716 · 2022-016C

PAYLOAD ACTIVE UNKNOWN

§ Identity

Operator
Country
US
Launch date
2022-02-21
Launch site
AFETR
Launch vehicle
Mass (kg)
RCS (m²)

Purposes: comms

External: N2YO · Heavens-Above · Gunter

§ Orbital elements

Epoch: 2026-09-20T03:45:24.048576Z

Period
93.90 min
Inclination
53.1610°
Eccentricity
0.0001392
Mean motion
15.33552506 rev/d
Perigee alt
464.3 km
Apogee alt
466.2 km
Semi-major
6,843.4 km
B*
2.9596e-5
RAAN
165.6404°
Arg perigee
85.4263°
Mean anomaly
274.6899°
Rev number
25,292

§ Raw data

STARLINK-35431 51716U 22016C   26263.15652834  .00000601  00000+0  29596-4 0  99952 51716  53.1610 165.6404 0001392  85.4263 274.6899 15.33552506252927

JSON: /api/v1/satellites/51716 · /tle

For live sub-satellite position, see the globe view (requires WebGL).

§ Visibility from observer

Set your observer location to see the next 7 days of passes ≥ 10°. The values pass through the URL so the page stays shareable.

No JS? Fill the form by hand. The geolocation button needs JavaScript.